Wind_Speed
44 44 44 44 45 46 47 48 50 51 51 51 51 51 51 50 50 49 49 49 48 48 48 48 47 46 45 44 43 41 40 40 39 37 32 28 26 26 26 26 26 25 24 22 20 18 16 13 11 9 8 6 5 5 5 7 8 10 11 12 11 11 10 10 10 10 10 9 9
43 43 43 43 44 45 46 48 49 51 52 52 52 51 51 51 50 50 50 49 49 48 48 47 47 46 45 43 41 40 39 39 39 36 31 27 26 26 28 28 27 26 25 22 20 18 16 14 11 10 8 8 7 8 9 10 11 12 12 12 11 10 10 10 10 10 9 10 10
43 43 42 42 43 44 45 47 49 50 52 52 52 51 51 50 49 49 49 49 48 48 47 47 47 45 44 42 40 39 38 39 37 34 29 27 27 28 29 28 27 26 25 23 20 18 16 14 12 11 10 9 9 10 10 11 12 13 13 12 11 10 10 10 10 10 10 10 10
43 43 42 42 42 43 44 45 47 49 51 50 50 48 47 47 47 48 48 48 47 47 47 47 46 44 42 40 38 38 37 37 35 31 28 27 28 29 30 29 28 26 25 23 20 18 17 15 14 12 11 10 9 9 10 11 12 12 12 11 10 10 10 10 10 10 10 10 10
43 43 42 42 41 41 42 43 45 47 49 49 47 46 46 46 47 47 48 48 48 47 47 46 45 43 41 39 37 37 37 36 33 30 29 29 30 31 30 29 28 27 25 23 20 18 17 16 14 12 11 9 9 9 11 12 12 11 11 10 10 10 10 10 10 10 10 10 11
43 43 42 41 41 40 41 42 44 47 49 50 49 47 46 46 47 47 48 48 48 47 45 44 43 41 39 38 36 36 36 35 32 30 30 30 31 31 31 30 29 27 25 23 20 18 17 15 14 12 10 9 9 10 11 11 11 11 10 10 10 10 10 10 10 10 10 11 11
43 42 42 41 40 40 41 42 44 47 49 50 50 49 48 47 48 48 48 48 47 45 43 42 41 40 38 37 36 36 36 34 32 31 31 32 32 32 31 30 28 27 24 22 20 18 16 15 13 11 9 9 9 10 11 10 10 10 10 10 10 10 10 10 10 10 11 11 11
42 42 41 41 41 41 42 43 44 47 49 50 50 50 49 49 49 49 48 46 44 42 41 40 39 38 37 36 35 36 35 34 33 32 32 33 33 32 31 30 28 26 23 21 19 17 15 14 12 10 9 9 10 10 10 10 10 11 11 11 10 10 10 10 10 11 11 11 11
40 41 41 41 41 42 43 43 44 46 48 50 50 50 50 50 49 47 44 41 40 39 39 38 37 36 35 35 35 36 36 35 34 34 34 34 33 33 31 29 27 25 23 21 18 16 15 13 12 10 10 9 10 10 10 10 11 11 11 11 10 10 10 10 10 11 11 11 12
39 39 40 41 41 42 43 44 45 47 48 49 50 51 51 49 46 42 39 37 37 37 37 36 36 35 34 34 36 36 36 35 35 35 35 35 34 33 31 29 26 25 23 20 18 16 14 13 11 10 10 9 9 10 11 11 12 11 11 10 10 10 10 11 11 11 11 12 12
36 37 39 40 41 42 43 45 46 47 48 49 50 50 50 47 42 38 36 35 34 35 35 35 35 34 34 35 37 37 36 36 36 36 36 35 34 33 30 28 26 24 22 20 17 15 14 12 11 10 9 9 9 10 12 12 12 11 10 10 10 10 11 11 11 11 11 12 12
34 36 38 40 41 43 44 45 47 48 48 49 49 50 48 44 39 36 34 33 33 33 34 34 34 34 34 36 38 38 37 37 38 38 37 36 34 32 29 27 25 23 21 18 16 14 13 11 10 9 8 8 10 11 12 12 11 10 10 10 10 10 11 11 11 11 12 12 13
35 36 38 40 42 43 44 45 47 47 48 48 48 48 46 42 37 34 33 32 32 33 33 33 33 33 35 38 39 39 38 38 38 38 37 36 33 30 28 25 23 21 19 17 15 13 12 11 9 8 8 9 11 12 12 11 10 10 10 10 10 10 11 11 11 11 12 12 13
36 38 39 41 42 44 45 46 46 47 47 47 47 46 43 39 36 33 31 31 30 31 32 32 32 34 37 40 40 40 40 40 39 39 37 35 32 29 26 24 22 19 18 16 14 13 11 10 8 8 9 11 12 12 11 10 10 10 10 10 10 11 11 11 11 12 12 13 14
37 39 40 41 43 44 45 45 46 46 46 45 45 43 41 37 34 32 31 30 30 31 31 32 33 36 40 41 41 41 41 41 41 39 37 33 30 27 25 22 20 18 17 15 14 12 10 9 9 10 11 12 12 11 10 10 10 10 10 11 11 11 11 11 12 12 13 13 14
38 40 41 42 43 44 45 45 45 45 44 44 43 41 38 35 33 31 30 30 30 31 31 32 35 39 41 42 42 42 43 42 41 38 35 32 29 26 23 21 19 18 16 14 12 11 10 9 10 11 12 12 11 10 10 10 10 10 11 11 10 11 11 12 12 13 13 14 14
39 41 42 43 43 44 44 44 44 44 43 42 41 40 37 34 32 31 30 29 30 31 32 34 37 41 43 44 44 44 43 42 39 36 33 30 27 25 22 20 19 17 15 13 11 10 10 11 12 12 12 11 10 10 10 10 10 10 10 10 10 11 12 12 13 14 14 15 15
41 41 42 42 43 43 43 43 43 43 42 42 41 39 36 33 31 30 29 29 30 32 34 36 40 43 45 46 45 44 42 39 36 33 31 28 26 23 22 20 18 16 14 12 11 11 12 13 13 12 11 10 10 9 9 9 9 10 10 10 11 12 12 13 14 14 15 15 15
42 42 42 42 42 42 42 42 42 42 42 41 40 37 34 32 31 30 29 30 31 33 36 39 42 44 46 46 45 43 40 37 34 31 29 27 25 22 21 19 17 15 13 12 12 13 14 13 12 11 10 10 9 9 9 9 9 9 10 11 12 13 13 14 15 15 15 15 15
42 42 42 42 41 41 42 42 42 41 41 40 38 35 33 31 29 29 29 31 33 36 38 41 44 46 46 45 44 41 38 35 33 30 28 25 23 22 20 18 16 14 13 13 14 14 14 13 11 10 10 9 9 9 9 9 9 10 11 12 13 13 14 14 15 15 16 16 16
41 41 41 41 41 41 41 41 41 40 39 38 36 34 32 30 28 29 30 33 36 38 41 42 44 45 46 45 42 39 36 34 31 29 26 24 22 21 19 17 15 14 14 14 15 14 13 12 10 10 9 9 9 9 9 9 10 11 12 13 13 14 14 15 15 16 16 16 17
39 39 40 40 41 41 41 41 40 39 37 35 34 32 30 29 29 30 32 35 38 41 42 43 43 44 44 42 40 37 35 33 30 27 25 23 22 20 18 16 14 14 15 15 14 13 12 11 10 9 9 9 9 9 9 10 11 12 13 13 14 15 15 15 16 16 16 17 17
38 38 39 40 40 41 40 40 39 37 35 33 31 30 29 29 30 32 35 38 40 41 42 41 41 41 41 39 38 36 34 31 29 26 24 22 21 18 16 15 15 15 15 14 13 12 11 11 10 10 9 9 9 9 10 11 12 13 13 14 15 15 16 16 17 17 17 17 18
38 39 39 40 40 40 39 38 37 35 34 32 30 29 29 30 32 34 37 39 40 41 40 39 39 39 38 37 35 33 31 29 27 25 23 21 19 17 16 15 15 15 15 13 12 12 11 11 10 10 9 9 9 10 10 11 12 13 14 15 15 16 16 17 17 17 17 18 18
39 39 40 40 39 39 38 37 36 34 32 30 29 28 29 31 33 36 38 39 40 39 38 37 37 37 37 36 34 31 29 27 26 24 22 20 18 17 16 16 16 15 14 13 13 12 11 11 10 9 9 9 9 10 11 12 13 14 15 15 16 17 17 17 17 17 18 18 19
40 40 40 39 39 38 36 35 34 32 30 29 28 29 31 33 34 36 38 39 39 37 35 34 36 37 37 35 32 30 28 26 24 22 20 19 18 17 17 17 16 15 14 13 13 12 11 10 10 9 9 9 10 11 12 13 13 14 15 16 16 17 17 17 17 18 18 19 20
40 40 40 39 37 36 35 34 32 31 29 29 30 31 33 34 35 37 38 38 37 35 33 34 37 38 36 34 32 30 28 26 23 21 19 18 18 18 18 17 16 15 14 13 12 11 11 10 10 10 10 10 11 11 12 12 13 14 15 16 17 17 17 17 18 18 19 19 20
40 39 38 37 36 35 34 33 31 30 30 31 32 33 34 35 36 37 37 37 35 34 34 37 39 38 35 33 31 29 27 24 22 20 19 18 18 18 17 16 15 14 13 13 12 12 11 11 11 10 10 10 10 11 11 12 13 15 16 16 17 17 18 18 19 19 19 20 20
38 37 37 36 35 34 33 32 31 31 31 32 32 33 34 35 36 36 36 36 35 35 37 40 39 37 34 32 30 27 25 23 21 20 19 19 18 17 16 15 15 14 13 13 12 12 11 11 10 10 10 9 10 10 11 13 14 16 16 17 17 18 18 19 19 20 20 20 20
36 36 35 35 34 33 32 32 32 32 32 32 32 33 34 35 35 35 36 36 36 38 40 40 38 36 33 31 28 26 24 22 20 19 19 18 16 16 15 15 15 14 14 13 12 11 10 10 10 10 9 9 9 10 12 14 15 16 16 17 18 18 19 20 20 20 21 21 21
35 35 34 34 33 33 32 32 32 31 31 31 32 32 33 33 34 35 36 37 38 39 40 38 36 33 31 28 26 24 23 21 20 18 17 16 16 16 16 16 15 14 13 12 10 10 9 9 9 9 9 9 9 11 13 15 16 16 17 18 18 19 19 20 20 20 21 21 21
35 34 34 34 33 33 32 32 31 31 31 31 31 32 32 33 34 35 36 38 39 39 37 35 33 30 28 26 25 23 22 20 19 19 18 17 16 16 16 15 14 12 11 10 9 9 9 9 9 9 9 9 11 12 14 15 16 17 17 18 19 19 20 20 20 20 21 21 21
34 34 34 34 34 33 32 32 31 31 31 31 31 32 33 34 34 36 37 38 38 36 34 32 30 28 27 25 24 22 21 21 20 19 18 17 16 16 15 13 12 10 9 9 8 8 8 8 9 9 10 11 12 14 15 15 16 17 18 19 19 20 20 20 20 20 20 21 21
34 34 34 34 33 33 32 32 31 31 31 32 32 33 33 34 35 36 37 37 35 33 30 29 27 26 25 24 23 22 21 21 20 18 17 16 15 14 12 11 10 9 8 8 7 7 7 8 9 10 11 12 13 14 15 16 17 17 18 19 19 19 19 20 20 20 20 20 20
33 33 33 33 33 32 32 32 32 31 32 32 33 33 33 34 35 36 36 34 32 30 28 27 26 25 24 22 21 21 20 19 18 17 16 14 13 11 10 9 8 8 7 7 7 7 7 9 10 11 12 13 13 14 15 16 17 17 18 18 18 19 19 19 19 19 19 19 19
31 32 32 32 32 32 32 32 32 32 33 33 34 34 34 35 35 35 33 32 30 29 28 26 25 23 22 21 20 19 18 17 16 15 13 12 10 9 8 7 7 6 6 6 6 7 8 10 12 12 13 13 14 15 15 16 17 17 17 17 17 18 18 18 18 18 18 19 19
30 30 31 31 32 32 32 32 32 33 33 34 34 34 35 35 34 32 31 30 29 28 27 25 24 22 21 19 18 17 16 15 14 12 11 10 9 8 7 6 5 5 5 5 6 8 10 11 12 13 13 14 14 15 16 16 16 16 16 16 16 17 17 17 17 17 18 18 18
29 29 30 31 31 32 32 32 32 33 34 34 34 35 35 34 32 31 30 29 28 27 25 23 22 20 18 17 15 14 13 12 11 10 9 8 7 6 5 5 4 4 5 6 8 9 11 12 13 13 14 14 15 15 15 15 15 15 15 15 15 16 16 16 16 16 17 17 18
29 29 30 31 31 32 32 32 33 33 34 34 35 35 34 33 32 30 29 28 26 24 22 21 19 17 15 13 12 11 11 10 9 9 8 7 6 5 4 4 4 5 6 7 9 10 11 12 13 14 14 14 14 15 15 15 15 15 15 15 15 15 15 15 15 15 16 16 17
29 29 30 30 31 31 32 32 33 33 34 35 35 34 33 32 31 29 27 25 23 21 18 16 15 13 11 10 9 9 9 9 8 7 6 5 4 4 3 3 4 6 7 8 9 10 11 12 13 14 14 14 14 14 14 14 14 14 14 14 14 14 14 14 14 14 15 15 16
27 28 28 29 30 30 31 32 33 33 34 34 33 32 31 30 28 26 24 22 20 17 15 13 11 10 9 8 8 7 7 6 6 5 4 3 3 3 3 4 5 7 8 9 10 10 11 12 13 14 15 14 14 14 14 14 14 14 14 14 14 13 13 13 13 13 14 14 15
Wind_Direction
230 231 232 232 232 231 231 231 230 230 230 231 231 231 232 231 230 229 229 229 229 229 229 229 229 229 229 228 227 227 228 229 229 229 229 228 219 205 197 198 198 198 196 192 187 183 181 182 184 188 194 204 216 233 250 262 269 269 265 261 258 257 257 258 259 261 263 265 268
230 232 233 233 233 232 231 231 231 231 231 231 232 233 233 233 231 230 230 230 230 230 230 230 230 229 229 228 227 227 228 229 227 226 224 221 211 201 195 196 196 196 194 190 185 183 184 189 196 203 212 222 233 243 252 258 260 257 254 253 253 255 257 258 260 262 264 266 268
230 232 233 233 233 232 231 231 232 232 232 231 230 230 230 230 230 230 230 230 230 230 230 230 230 230 229 228 227 227 227 227 224 221 217 210 202 195 193 195 194 193 191 189 187 188 192 199 207 215 223 231 239 245 250 251 248 246 246 249 252 255 258 259 261 263 264 266 268
230 231 232 233 233 233 233 233 234 234 232 229 228 227 227 229 229 229 230 230 229 229 229 230 230 230 229 228 227 227 227 224 220 213 205 199 194 192 193 193 192 190 189 189 191 194 200 206 213 220 226 231 237 240 241 239 238 239 243 248 252 256 259 261 262 263 265 267 270
230 231 233 234 235 236 236 236 236 234 232 230 229 228 229 229 229 229 229 229 229 228 229 229 230 230 231 229 228 227 225 220 212 203 195 192 191 191 192 192 191 191 191 193 196 200 205 210 214 218 222 225 228 230 231 232 235 239 244 248 252 256 258 260 261 263 265 268 272
230 232 233 235 236 236 236 236 236 235 234 232 231 230 230 230 230 230 229 229 229 228 228 229 230 231 232 232 229 226 222 215 205 195 190 189 190 191 191 191 191 193 195 197 200 203 206 208 211 213 213 215 219 224 228 232 237 241 244 247 250 253 256 257 259 262 265 269 273
232 232 233 234 234 235 234 234 234 234 233 233 232 231 231 231 231 230 230 229 228 228 229 229 230 232 234 232 228 223 218 208 198 191 190 191 191 190 190 191 192 195 197 201 203 204 205 206 206 205 205 209 215 222 229 233 237 241 244 246 248 251 253 255 259 262 265 269 273
232 232 233 233 233 232 232 232 233 233 233 232 232 232 232 232 232 231 229 228 228 229 230 231 232 234 235 233 227 220 213 202 193 190 191 192 191 191 191 192 194 196 199 202 203 203 202 201 198 197 200 207 216 223 230 235 238 241 244 246 248 250 253 256 259 262 266 269 273
231 231 232 232 230 229 230 231 233 233 233 232 232 232 232 233 232 230 229 229 230 231 232 234 235 237 236 232 225 217 208 197 190 189 191 192 192 192 192 194 195 197 200 202 201 200 197 195 192 193 198 206 216 224 231 235 238 241 244 246 249 252 254 257 259 262 266 270 274
231 231 231 230 228 228 228 230 231 232 232 232 231 232 232 232 232 231 231 232 233 234 234 236 238 239 235 228 220 211 202 193 189 190 192 192 192 193 195 196 198 200 201 201 199 196 193 190 190 192 198 206 215 223 229 234 237 240 244 247 250 252 255 257 260 263 267 271 275
233 232 231 230 229 229 228 228 229 230 230 230 230 231 231 231 232 234 235 235 234 235 236 238 239 238 232 222 213 204 196 190 189 190 192 192 193 195 197 199 200 201 201 200 196 192 190 190 192 196 201 207 214 222 228 232 237 241 245 248 251 253 256 258 262 266 269 274 277
233 232 231 230 229 229 228 228 228 228 228 228 229 230 230 230 233 236 237 236 235 235 237 237 238 234 225 214 205 198 192 188 189 191 192 193 194 195 197 199 200 200 199 196 193 191 191 194 197 201 203 207 215 222 228 233 238 244 249 251 254 256 259 262 266 269 273 277 279
231 230 229 228 228 228 227 226 226 226 226 227 228 228 229 230 233 236 237 236 235 235 235 234 231 224 214 206 199 193 189 188 190 192 193 194 195 195 197 198 198 196 194 192 191 192 194 199 201 201 202 208 216 224 230 236 242 248 253 256 258 260 263 266 270 274 277 280 282
228 227 227 227 226 226 225 225 225 225 225 225 226 226 226 228 232 235 236 235 234 233 231 228 222 213 205 200 194 190 189 189 191 192 193 194 195 195 195 194 193 191 190 190 191 194 197 200 198 198 204 212 220 226 232 239 245 250 255 257 260 263 267 270 274 277 280 282 284
226 226 226 226 225 224 224 223 223 224 224 224 224 224 225 227 232 234 234 232 232 231 227 221 213 205 200 196 192 190 189 190 192 193 194 195 195 194 193 190 188 188 189 191 192 194 195 194 194 201 210 217 222 228 234 240 246 250 253 257 261 265 269 273 276 279 281 283 284
225 225 225 225 224 223 222 222 223 223 223 222 222 222 223 227 231 232 231 229 229 227 222 215 208 202 197 194 192 191 191 191 192 193 194 194 194 192 189 187 187 188 190 191 191 190 189 190 198 207 214 220 224 230 236 242 246 250 253 257 262 267 271 275 277 279 281 282 284
224 224 224 223 222 221 221 222 223 223 222 222 221 221 222 226 229 229 228 226 225 222 216 211 205 200 196 193 192 192 192 192 192 193 194 194 192 189 187 186 187 188 189 188 185 183 187 195 204 211 217 222 228 233 239 244 248 253 257 262 267 270 273 275 277 279 280 282 284
223 222 222 221 220 220 221 222 223 224 223 222 220 220 221 225 228 229 227 226 223 218 213 207 203 199 196 194 193 193 192 192 193 193 193 192 189 186 185 186 186 186 185 182 181 187 196 204 209 214 220 226 232 239 245 249 255 260 265 270 272 274 276 277 278 279 281 283 285
221 221 220 219 219 220 222 223 224 224 223 221 221 221 223 227 231 231 229 225 220 215 210 206 202 199 197 195 193 192 191 192 193 193 192 189 186 184 184 185 185 183 181 180 187 197 206 211 214 219 224 231 238 245 251 257 264 269 273 274 276 277 277 279 280 281 283 285 287
219 219 218 218 220 221 222 223 223 223 222 221 221 223 225 229 232 232 229 223 216 211 209 206 203 200 197 195 192 190 189 191 192 191 188 185 183 183 184 184 182 180 180 186 196 204 210 214 218 223 230 237 244 251 258 265 270 273 274 275 276 277 279 280 282 284 286 288 290
217 216 216 218 219 221 221 222 221 220 219 221 222 224 227 229 230 229 226 219 212 208 207 207 205 202 198 193 189 188 188 190 189 187 184 181 181 182 183 182 179 179 185 195 203 208 213 216 222 227 234 241 248 255 262 267 270 271 273 274 276 278 280 282 284 286 288 290 292
213 212 213 215 217 218 219 218 218 218 218 219 221 223 224 224 224 223 218 213 209 207 206 207 206 203 197 191 187 186 187 186 184 181 180 180 181 181 180 178 179 184 193 201 206 211 215 220 225 230 236 243 250 257 263 266 268 270 272 275 278 281 284 285 287 289 290 291 292
209 209 210 212 213 214 214 214 215 215 216 216 216 216 215 215 216 215 211 208 207 206 207 207 206 201 194 187 185 185 184 182 179 178 178 180 180 179 177 177 184 193 200 205 209 213 218 222 227 232 238 245 252 258 263 266 268 271 275 279 282 285 286 287 288 289 290 291 292
207 207 208 208 209 209 210 211 213 213 214 213 212 210 209 209 209 209 207 206 206 207 207 206 202 195 188 184 183 183 181 178 177 177 178 179 178 176 176 181 190 198 203 207 211 216 220 224 229 234 241 248 255 261 265 268 272 276 280 282 284 285 286 287 288 289 290 290 290
205 205 205 204 205 206 207 209 211 212 212 211 209 207 205 205 205 205 205 205 206 207 206 202 195 187 183 181 181 180 178 177 177 178 178 177 175 176 180 188 195 200 205 209 213 217 221 226 232 238 245 252 258 263 268 272 276 280 282 283 283 284 284 286 288 289 289 289 289
202 201 201 202 203 204 205 207 208 208 208 207 206 204 203 203 204 204 204 204 205 205 202 195 187 181 179 179 178 177 177 177 178 178 176 174 174 179 186 193 198 202 206 211 215 219 223 228 234 241 247 253 259 264 270 276 281 283 283 282 282 283 284 286 287 288 288 288 287
198 198 198 200 201 202 202 203 204 204 204 203 202 202 202 202 203 203 203 203 202 200 194 186 180 177 177 176 176 176 176 177 177 176 174 175 178 185 191 197 201 205 208 213 217 221 226 231 236 242 249 256 263 271 278 284 286 285 283 281 282 284 286 287 287 288 288 288 288
194 195 197 199 199 199 200 200 199 199 199 200 200 200 200 200 200 200 200 200 198 193 186 180 176 175 175 175 175 176 176 175 174 174 175 179 185 190 195 198 203 207 211 215 220 224 230 236 242 248 256 265 275 284 289 289 285 282 280 281 284 286 287 288 288 289 289 289 289
192 193 195 197 197 197 197 196 195 195 196 197 197 197 197 197 197 197 197 195 191 185 179 175 173 173 173 174 174 175 174 173 173 174 178 184 188 192 195 199 203 208 213 218 224 230 237 244 252 260 269 280 288 292 289 283 278 278 279 283 285 286 287 288 289 290 290 291 290
191 193 194 195 195 194 193 192 192 192 192 193 193 193 193 193 194 193 192 189 185 179 175 171 170 171 172 173 172 172 171 171 173 177 182 186 189 192 196 201 206 212 218 225 232 239 247 256 264 274 285 294 296 289 281 276 276 278 282 284 286 287 288 289 290 291 291 291 291
189 190 191 191 190 189 189 189 189 188 188 188 188 189 190 190 190 189 187 183 178 173 170 168 168 169 170 170 170 169 169 170 174 179 185 189 192 195 200 206 211 218 225 233 241 250 258 268 278 288 297 300 291 280 275 276 279 282 285 286 287 288 289 290 291 291 291 290 289
186 187 187 186 185 185 185 184 184 183 183 183 184 185 186 186 186 183 180 175 171 168 166 166 167 167 168 168 168 167 168 171 176 182 188 192 196 200 206 211 217 225 234 243 252 261 271 281 290 296 297 291 281 277 277 280 283 286 287 288 288 289 290 291 291 290 290 289 288
184 184 184 183 181 180 179 179 178 178 179 180 182 183 184 183 180 176 171 167 165 163 164 165 166 167 167 167 166 167 170 175 181 186 190 195 200 206 211 217 225 234 244 254 265 276 285 292 294 291 286 281 279 280 283 285 287 288 289 289 290 290 291 291 291 290 289 288 286
182 182 181 180 178 176 175 174 175 177 179 180 181 182 181 177 172 167 164 162 161 162 163 165 166 167 167 167 167 170 174 180 185 189 193 198 204 211 219 226 235 246 257 269 281 290 293 291 285 280 278 279 281 284 287 289 289 290 290 291 291 292 291 291 290 289 288 287 286
180 179 178 176 175 173 173 174 176 179 180 180 180 179 175 170 165 162 160 160 161 162 164 166 167 167 167 168 170 174 179 183 187 191 196 202 209 218 228 236 249 261 273 285 293 294 287 279 276 276 279 283 286 288 290 290 291 291 291 292 292 292 291 291 290 288 287 286 286
177 177 175 174 174 174 175 177 179 180 180 179 177 173 169 165 162 160 160 161 162 164 166 166 166 166 167 169 173 178 182 186 191 196 202 209 217 227 238 250 263 277 288 295 292 282 275 274 276 281 285 288 290 291 291 291 291 292 292 292 292 292 291 290 288 287 286 286 286
175 176 175 175 176 177 178 179 179 179 178 175 172 168 164 162 161 161 162 164 165 166 166 165 165 166 169 172 175 180 185 191 197 204 211 220 227 237 250 266 282 292 294 288 277 272 273 277 282 286 289 290 291 291 292 292 293 293 294 293 293 292 291 289 288 287 286 286 288
174 176 177 177 178 178 179 179 178 176 174 171 168 165 163 162 162 163 164 166 167 166 164 164 165 167 170 174 178 184 191 198 207 215 224 232 241 252 269 288 298 295 284 275 272 273 278 282 286 289 290 291 292 293 294 295 296 296 295 295 294 292 291 290 289 288 288 288 289
173 176 177 178 178 178 178 177 176 174 171 168 166 164 163 163 163 163 164 166 165 163 162 161 163 166 170 177 185 195 204 213 221 229 237 247 260 277 295 308 297 282 274 272 274 278 282 285 287 290 292 293 294 296 297 298 299 298 297 295 295 294 293 292 292 291 290 290 290
174 176 177 177 177 176 175 174 173 171 168 166 164 163 163 163 162 162 161 160 159 158 157 158 162 167 175 186 199 211 222 231 238 245 255 270 290 306 312 302 280 271 271 275 279 282 284 287 289 292 294 296 299 300 301 301 301 300 298 297 296 295 295 294 294 293 292 291 290
178 178 178 177 176 174 173 171 169 167 165 163 161 161 160 159 158 156 154 153 152 153 155 160 168 178 191 204 215 225 233 243 253 265 283 302 312 308 292 275 269 270 274 278 282 284 287 289 292 295 298 300 303 303 304 303 302 301 299 298 297 297 296 296 296 295 294 293 293
Height
1451 1453 1456 1458 1459 1461 1462 1464 1465 1465 1466 1466 1467 1467 1468 1469 1470 1470 1471 1472 1473 1474 1475 1476 1477 1477 1479 1481 1483 1485 1487 1488 1488 1489 1490 1492 1494 1496 1498 1500 1501 1501 1501 1501 1501 1502 1503 1504 1504 1505 1505 1506 1506 1506 1507 1507 1508 1509 1510 1510 1509 1509 1508 1508 1507 1507 1507 1507 1507
1450 1452 1454 1456 1458 1459 1461 1462 1463 1463 1464 1464 1464 1465 1466 1467 1467 1468 1469 1470 1471 1472 1473 1474 1475 1476 1478 1480 1482 1484 1486 1487 1487 1487 1489 1491 1493 1495 1496 1498 1499 1499 1499 1500 1500 1500 1501 1502 1503 1503 1504 1504 1505 1506 1506 1507 1507 1508 1509 1509 1508 1507 1507 1507 1506 1506 1506 1506 1506
1449 1451 1453 1455 1456 1457 1459 1460 1461 1462 1462 1462 1462 1462 1463 1465 1466 1467 1468 1468 1470 1471 1472 1472 1473 1475 1477 1479 1482 1484 1485 1486 1486 1487 1488 1489 1491 1493 1495 1497 1497 1498 1498 1498 1498 1499 1499 1500 1501 1502 1503 1503 1504 1505 1506 1506 1507 1508 1508 1507 1507 1506 1506 1506 1505 1505 1505 1505 1505
1447 1449 1451 1453 1454 1456 1457 1457 1458 1459 1460 1459 1460 1461 1462 1465 1466 1467 1467 1468 1468 1469 1470 1471 1472 1474 1476 1478 1481 1483 1484 1485 1485 1486 1487 1488 1490 1492 1494 1495 1496 1496 1496 1497 1497 1497 1498 1499 1500 1501 1502 1502 1503 1504 1505 1506 1507 1507 1507 1506 1505 1505 1505 1504 1504 1504 1504 1504 1504
1446 1448 1449 1451 1452 1454 1455 1456 1457 1457 1457 1458 1459 1461 1462 1464 1465 1466 1466 1467 1467 1468 1469 1470 1471 1473 1475 1478 1480 1482 1482 1483 1484 1485 1486 1487 1489 1491 1492 1493 1494 1494 1494 1495 1495 1496 1496 1497 1498 1499 1500 1501 1502 1503 1504 1505 1506 1505 1505 1504 1504 1504 1503 1503 1503 1503 1503 1503 1503
1444 1446 1448 1449 1451 1452 1453 1454 1455 1455 1456 1456 1457 1459 1461 1462 1463 1463 1464 1464 1465 1467 1468 1470 1471 1473 1475 1477 1479 1480 1481 1482 1483 1484 1485 1487 1489 1490 1491 1492 1492 1492 1493 1493 1494 1494 1495 1496 1497 1498 1499 1500 1502 1503 1504 1504 1504 1504 1503 1503 1503 1502 1502 1502 1502 1502 1502 1502 1502
1443 1444 1446 1447 1449 1450 1451 1452 1452 1453 1453 1454 1455 1456 1458 1459 1460 1461 1462 1462 1464 1466 1468 1469 1470 1472 1474 1476 1477 1478 1479 1480 1482 1483 1485 1487 1488 1489 1490 1490 1490 1491 1492 1492 1493 1493 1494 1495 1496 1497 1498 1500 1501 1502 1502 1503 1503 1503 1502 1502 1502 1502 1501 1501 1501 1501 1501 1501 1501
1441 1443 1444 1445 1447 1447 1448 1449 1450 1451 1451 1452 1452 1454 1455 1457 1457 1458 1459 1461 1463 1465 1467 1468 1469 1471 1473 1475 1476 1477 1477 1479 1481 1483 1485 1487 1487 1488 1488 1489 1489 1490 1491 1492 1492 1493 1493 1494 1496 1497 1498 1499 1500 1501 1502 1502 1502 1502 1501 1501 1501 1500 1500 1500 1500 1500 1500 1500 1500
1440 1441 1443 1444 1445 1446 1446 1447 1448 1448 1449 1450 1451 1452 1453 1454 1455 1456 1457 1460 1463 1465 1466 1467 1468 1471 1473 1474 1475 1475 1476 1478 1480 1482 1484 1486 1487 1487 1487 1488 1488 1489 1490 1491 1492 1492 1493 1494 1495 1496 1497 1498 1499 1500 1500 1501 1501 1500 1500 1500 1499 1499 1499 1499 1499 1499 1499 1499 1499
1438 1440 1441 1442 1443 1444 1445 1446 1446 1447 1447 1448 1449 1450 1451 1452 1453 1455 1457 1459 1462 1463 1465 1466 1467 1469 1472 1473 1473 1474 1475 1477 1479 1481 1483 1484 1485 1486 1486 1487 1487 1488 1489 1489 1491 1492 1492 1493 1494 1495 1496 1497 1498 1498 1499 1500 1500 1499 1499 1498 1498 1498 1498 1498 1498 1498 1498 1498 1498
1437 1438 1439 1440 1441 1442 1443 1444 1444 1445 1446 1447 1448 1449 1450 1451 1453 1456 1457 1459 1461 1462 1463 1464 1466 1467 1469 1471 1472 1473 1474 1476 1478 1480 1482 1483 1484 1485 1486 1486 1487 1487 1488 1489 1490 1491 1492 1492 1493 1494 1495 1496 1497 1497 1498 1499 1498 1498 1498 1497 1497 1497 1497 1497 1497 1497 1497 1497 1496
1436 1437 1437 1438 1439 1440 1441 1442 1442 1443 1444 1445 1446 1447 1448 1451 1453 1456 1457 1458 1459 1460 1462 1463 1464 1466 1468 1469 1470 1472 1473 1475 1477 1479 1481 1482 1483 1484 1485 1486 1486 1487 1487 1488 1489 1490 1491 1492 1493 1493 1494 1494 1496 1497 1497 1497 1497 1497 1497 1496 1496 1496 1496 1496 1496 1496 1496 1495 1495
1434 1435 1436 1437 1437 1438 1439 1440 1441 1442 1442 1443 1445 1446 1448 1450 1453 1455 1457 1457 1458 1459 1460 1462 1463 1465 1467 1468 1469 1470 1472 1474 1476 1478 1479 1481 1482 1483 1484 1485 1485 1486 1487 1488 1489 1490 1491 1492 1492 1492 1493 1494 1495 1496 1497 1496 1496 1496 1495 1495 1495 1495 1495 1494 1494 1494 1494 1494 1494
1432 1433 1434 1435 1436 1437 1437 1438 1439 1440 1441 1442 1444 1445 1447 1449 1452 1454 1455 1456 1457 1458 1459 1461 1463 1464 1466 1467 1468 1469 1471 1473 1475 1477 1478 1480 1481 1482 1483 1484 1485 1486 1487 1488 1489 1490 1491 1491 1491 1492 1493 1494 1495 1495 1495 1495 1495 1495 1494 1494 1494 1494 1493 1493 1493 1493 1493 1492 1492
1431 1431 1432 1433 1434 1435 1436 1437 1438 1439 1440 1442 1443 1444 1446 1448 1450 1452 1454 1455 1456 1457 1458 1460 1462 1464 1465 1466 1467 1468 1470 1472 1473 1475 1477 1479 1480 1481 1482 1483 1484 1486 1487 1488 1488 1489 1489 1490 1491 1492 1493 1494 1494 1494 1494 1494 1494 1494 1494 1493 1493 1493 1492 1492 1492 1492 1492 1491 1491
1429 1430 1430 1431 1432 1433 1434 1435 1436 1437 1439 1441 1442 1443 1445 1447 1449 1451 1452 1453 1455 1456 1458 1459 1461 1462 1464 1465 1466 1467 1468 1470 1472 1474 1476 1478 1479 1480 1482 1483 1484 1485 1487 1487 1488 1488 1488 1489 1491 1492 1493 1493 1493 1493 1493 1493 1493 1493 1493 1492 1492 1492 1492 1491 1491 1491 1490 1490 1490
1427 1428 1428 1429 1431 1432 1433 1434 1435 1437 1438 1440 1441 1442 1444 1445 1447 1448 1450 1451 1453 1455 1457 1458 1460 1461 1462 1463 1464 1466 1467 1469 1472 1474 1476 1477 1478 1480 1481 1482 1484 1485 1486 1487 1487 1487 1488 1489 1491 1492 1492 1492 1492 1492 1492 1492 1492 1492 1492 1491 1491 1491 1490 1490 1490 1489 1489 1489 1488
1426 1426 1427 1428 1429 1431 1432 1433 1434 1436 1437 1439 1440 1441 1442 1443 1445 1447 1448 1450 1452 1454 1456 1457 1458 1459 1460 1461 1462 1464 1467 1470 1473 1475 1476 1477 1478 1479 1481 1482 1483 1484 1485 1486 1486 1487 1488 1490 1490 1491 1491 1491 1491 1492 1492 1491 1491 1491 1491 1490 1490 1489 1489 1489 1488 1488 1488 1487 1487
1424 1425 1426 1427 1429 1430 1431 1432 1434 1435 1436 1437 1438 1439 1441 1442 1444 1446 1447 1449 1451 1453 1454 1455 1456 1457 1458 1459 1462 1465 1468 1471 1473 1475 1476 1477 1478 1479 1480 1482 1482 1484 1484 1485 1486 1487 1489 1489 1489 1490 1490 1490 1490 1490 1490 1490 1490 1490 1489 1489 1489 1488 1488 1488 1487 1487 1486 1486 1485
1423 1424 1425 1426 1427 1429 1430 1432 1433 1434 1435 1436 1437 1439 1440 1442 1444 1445 1447 1448 1450 1451 1452 1453 1454 1456 1457 1459 1462 1465 1469 1471 1473 1474 1475 1476 1477 1478 1480 1481 1482 1482 1483 1484 1486 1487 1488 1488 1489 1489 1489 1489 1489 1489 1489 1489 1489 1488 1488 1488 1488 1487 1487 1487 1486 1485 1485 1484 1483
1422 1423 1424 1425 1426 1427 1429 1430 1432 1433 1434 1435 1436 1438 1440 1442 1443 1445 1446 1447 1448 1449 1450 1452 1453 1455 1457 1459 1462 1466 1469 1471 1472 1473 1474 1476 1477 1478 1479 1480 1481 1481 1482 1484 1486 1487 1487 1487 1488 1488 1488 1488 1488 1488 1488 1487 1487 1487 1487 1487 1487 1486 1486 1485 1485 1484 1483 1482 1482
1422 1423 1424 1424 1425 1426 1427 1429 1430 1431 1432 1434 1436 1438 1440 1441 1442 1444 1445 1446 1447 1448 1449 1451 1453 1455 1457 1459 1463 1466 1468 1470 1471 1472 1474 1475 1477 1477 1478 1479 1480 1481 1483 1484 1485 1486 1486 1487 1487 1487 1487 1487 1487 1487 1487 1487 1487 1487 1486 1486 1486 1485 1484 1484 1483 1482 1482 1481 1481
1422 1422 1423 1424 1424 1425 1426 1427 1429 1430 1432 1433 1435 1437 1439 1440 1441 1442 1443 1444 1446 1447 1449 1451 1453 1455 1458 1461 1463 1466 1468 1469 1470 1472 1473 1475 1476 1477 1478 1479 1480 1482 1483 1484 1485 1485 1485 1486 1486 1486 1486 1486 1486 1486 1486 1486 1486 1486 1485 1485 1484 1484 1483 1482 1482 1481 1480 1480 1479
1421 1422 1422 1422 1423 1424 1425 1426 1427 1429 1431 1432 1435 1437 1438 1439 1440 1441 1442 1443 1445 1447 1450 1452 1454 1456 1459 1462 1464 1466 1468 1469 1470 1472 1473 1475 1476 1477 1477 1479 1481 1482 1483 1484 1484 1484 1485 1485 1485 1485 1485 1485 1485 1485 1485 1485 1485 1484 1484 1484 1483 1482 1482 1481 1480 1479 1479 1478 1478
1420 1420 1421 1422 1422 1423 1424 1425 1427 1428 1430 1432 1434 1436 1437 1438 1439 1440 1441 1443 1445 1447 1450 1452 1455 1457 1460 1462 1465 1466 1468 1469 1471 1472 1473 1474 1476 1477 1478 1480 1481 1482 1482 1483 1483 1483 1484 1484 1484 1484 1484 1484 1484 1484 1484 1483 1483 1483 1482 1482 1482 1481 1480 1479 1479 1478 1477 1477 1476
1418 1419 1419 1420 1422 1422 1424 1425 1426 1427 1430 1432 1434 1435 1436 1437 1438 1439 1441 1443 1445 1447 1450 1453 1455 1458 1460 1462 1464 1466 1468 1470 1471 1472 1473 1474 1476 1477 1479 1480 1481 1482 1482 1482 1482 1482 1482 1483 1483 1482 1482 1482 1482 1482 1482 1482 1482 1481 1481 1480 1480 1479 1479 1478 1477 1477 1476 1476 1475
1417 1417 1418 1419 1421 1422 1423 1425 1426 1428 1429 1431 1433 1434 1435 1436 1437 1439 1441 1442 1445 1447 1450 1453 1455 1457 1459 1462 1463 1466 1467 1469 1471 1472 1473 1474 1476 1477 1479 1480 1480 1481 1481 1481 1481 1481 1481 1481 1482 1482 1481 1481 1481 1481 1480 1480 1480 1479 1479 1479 1478 1478 1477 1477 1476 1476 1475 1474 1473
1415 1416 1417 1418 1420 1422 1423 1424 1426 1427 1429 1430 1432 1433 1434 1435 1437 1438 1440 1442 1445 1447 1450 1452 1454 1457 1459 1461 1463 1465 1467 1469 1470 1472 1473 1475 1476 1477 1478 1478 1479 1480 1480 1480 1480 1480 1480 1480 1480 1480 1480 1480 1479 1479 1479 1478 1478 1478 1478 1477 1477 1476 1476 1475 1474 1474 1473 1473 1472
1415 1416 1417 1418 1420 1421 1423 1424 1426 1427 1428 1429 1431 1432 1433 1435 1436 1438 1440 1442 1445 1447 1449 1451 1453 1456 1458 1461 1463 1465 1467 1468 1470 1471 1473 1474 1475 1476 1477 1477 1478 1479 1479 1479 1479 1479 1479 1478 1478 1479 1479 1478 1478 1478 1477 1477 1477 1477 1477 1476 1475 1475 1474 1473 1473 1472 1472 1471 1470
1415 1416 1417 1418 1419 1421 1422 1424 1425 1426 1427 1429 1430 1432 1433 1435 1436 1438 1440 1442 1445 1447 1448 1451 1453 1456 1458 1461 1463 1465 1467 1468 1470 1471 1472 1474 1474 1475 1476 1477 1478 1478 1478 1478 1478 1477 1477 1477 1477 1477 1477 1477 1477 1477 1477 1477 1476 1476 1475 1474 1474 1473 1472 1472 1471 1471 1470 1469 1468
1415 1416 1417 1418 1419 1421 1422 1423 1424 1426 1427 1428 1430 1432 1433 1435 1437 1438 1440 1442 1445 1447 1449 1452 1454 1457 1459 1461 1463 1465 1467 1468 1470 1471 1472 1473 1474 1475 1476 1477 1477 1477 1477 1477 1477 1476 1476 1476 1476 1476 1475 1475 1476 1476 1476 1475 1475 1474 1474 1473 1472 1472 1471 1470 1470 1469 1468 1467 1467
1414 1415 1417 1418 1419 1420 1422 1423 1424 1426 1427 1429 1430 1432 1433 1435 1437 1438 1441 1443 1446 1448 1451 1453 1456 1458 1460 1462 1463 1465 1467 1468 1470 1471 1472 1472 1474 1475 1476 1476 1476 1476 1476 1476 1475 1475 1475 1475 1474 1474 1474 1474 1475 1475 1474 1474 1473 1473 1472 1472 1471 1470 1469 1469 1468 1467 1467 1466 1465
1414 1416 1417 1418 1419 1420 1422 1423 1424 1426 1427 1429 1430 1432 1433 1435 1437 1439 1442 1445 1447 1450 1452 1455 1457 1459 1460 1462 1463 1465 1467 1468 1469 1470 1471 1472 1473 1474 1475 1475 1475 1475 1474 1474 1474 1474 1474 1473 1473 1473 1473 1473 1473 1473 1473 1472 1472 1471 1471 1470 1469 1468 1468 1467 1466 1466 1465 1464 1463
1415 1416 1417 1418 1419 1421 1422 1423 1425 1426 1427 1429 1431 1432 1434 1436 1438 1441 1444 1447 1449 1452 1454 1456 1458 1459 1461 1462 1464 1465 1467 1468 1469 1470 1471 1472 1473 1474 1474 1474 1473 1473 1473 1473 1472 1472 1472 1472 1472 1472 1472 1472 1472 1472 1471 1471 1470 1470 1469 1468 1467 1467 1466 1466 1465 1464 1463 1462 1462
1415 1417 1418 1419 1420 1421 1422 1424 1425 1427 1428 1430 1432 1433 1436 1438 1440 1442 1445 1448 1451 1453 1455 1457 1459 1460 1462 1463 1464 1466 1467 1468 1469 1470 1471 1472 1473 1473 1473 1472 1472 1472 1472 1472 1471 1471 1471 1471 1471 1472 1472 1471 1471 1471 1470 1469 1469 1468 1467 1467 1466 1465 1465 1464 1463 1462 1462 1461 1460
1417 1417 1418 1420 1421 1422 1423 1424 1426 1427 1429 1431 1433 1435 1438 1440 1442 1445 1447 1449 1452 1454 1456 1457 1459 1461 1462 1463 1465 1467 1467 1468 1469 1470 1471 1472 1472 1472 1472 1471 1471 1471 1471 1470 1470 1470 1471 1471 1470 1470 1470 1470 1470 1469 1469 1468 1467 1467 1466 1466 1465 1464 1463 1462 1462 1461 1460 1459 1459
1418 1418 1419 1420 1421 1422 1424 1425 1427 1428 1430 1432 1435 1437 1440 1442 1444 1447 1449 1451 1453 1454 1456 1457 1459 1461 1462 1464 1466 1467 1468 1469 1470 1470 1471 1471 1471 1471 1470 1470 1470 1470 1470 1470 1470 1470 1470 1469 1469 1469 1469 1469 1468 1468 1467 1467 1466 1466 1465 1464 1463 1463 1462 1461 1461 1460 1459 1458 1457
1418 1419 1420 1421 1422 1423 1424 1426 1428 1430 1432 1434 1437 1439 1441 1443 1446 1448 1450 1452 1453 1455 1457 1458 1460 1462 1463 1465 1466 1467 1468 1469 1470 1470 1470 1470 1469 1469 1469 1469 1469 1469 1469 1469 1469 1469 1469 1468 1468 1468 1468 1468 1467 1467 1466 1465 1465 1464 1463 1463 1462 1462 1461 1460 1459 1459 1458 1457 1457
1419 1419 1420 1421 1422 1424 1426 1428 1430 1432 1434 1436 1438 1440 1443 1445 1447 1449 1451 1453 1455 1456 1458 1459 1461 1463 1465 1466 1467 1468 1468 1469 1469 1468 1468 1468 1468 1468 1468 1468 1468 1468 1468 1468 1468 1468 1468 1467 1467 1467 1467 1467 1466 1465 1465 1464 1463 1463 1462 1462 1461 1460 1460 1459 1458 1457 1457 1456 1455
1419 1420 1421 1422 1423 1425 1427 1429 1432 1433 1436 1437 1440 1442 1444 1446 1448 1450 1452 1454 1456 1458 1460 1461 1463 1464 1465 1466 1467 1467 1467 1467 1467 1467 1467 1467 1467 1467 1467 1467 1467 1467 1467 1467 1467 1467 1467 1467 1466 1466 1465 1465 1465 1464 1463 1463 1462 1462 1461 1460 1460 1459 1458 1458 1457 1457 1456 1455 1454
1420 1421 1422 1424 1425 1427 1429 1431 1433 1435 1437 1439 1442 1444 1446 1448 1450 1452 1454 1456 1458 1460 1461 1462 1464 1465 1465 1466 1466 1466 1466 1466 1466 1466 1466 1466 1466 1466 1467 1467 1467 1467 1467 1467 1467 1467 1466 1466 1465 1464 1464 1463 1463 1463 1462 1462 1461 1460 1460 1459 1458 1458 1457 1457 1456 1456 1455 1454 1453